Location: Milo
(50.5667°N, 112.8833°W)
Time: 02:58:54
(UTC+00:00)

ISS - Pass Details

Date: 08 December 2021
Orbit: 413 x 422 km, 51.6° (Epoch: 22 January)

Event Time Altitude Azimuth Distance (km) Brightness Sun altitude
Rises 01:25:22 0° 281° (W) 2,384 1.3 -17.7°
Reaches altitude 10° 01:28:13 10° 256° (WSW) 1,512 0.4 -18.1°
Maximum altitude 01:30:05 14° 222° (SW) 1,278 -0.6 -18.4°
Drops below altitude 10° 01:31:57 10° 188° (S) 1,503 -0.7 -18.7°
Enters shadow 01:35:07 -1° 161° (SSE) 2,487 0.1 -19.2°
